Location: DARK SKY Beskydy - Park tmavé oblohy, www.darkskybeskydy.cz
(49.4926°N, 18.5016°E)
Time: 02:24:40
(UTC+02:00)

A-11 Canister half - Pass Details

Date: 23 February 2024
Orbit: 1513 x 1686 km, 47.2° (Epoch: 24 April)

Event Time Altitude Azimuth Distance (km) Brightness Sun altitude
Rises 00:10:18 0° 184° (S) 4,925 - -50.5°
Reaches altitude 10° 00:14:41 10° 169° (SSE) 3,941 - -50.5°
Maximum altitude 00:21:09 19° 128° (SE) 3,243 - -50.4°
Exits shadow 00:27:29 10° 88° (E) 3,900 11.2 -50.2°
Drops below altitude 10° 00:27:33 10° 88° (E) 3,913 11.2 -50.2°
Sets 00:31:50 0° 72° (ENE) 4,880 11.9 -50.0°
